星链-6244 (STARLINK-6244 )

导读 | 豆包AI

STARLINK-6244是美国SpaceX星链星座的卫星,于2023年5月14日发射入轨,属于星链低轨互联网星座的组网卫星之一。星链计划旨在构建全球卫星互联网,该卫星承担为全球偏远、欠发达区域提供高速网络接入的任务,依托低轨部署降低通信延迟,助力实现全球互联网覆盖。

基本信息
目录编号:
56548
目录名称:
STARLINK-6244
国际标识:
2023-065AX
轨道中心:
EARTH
卫星名称:
星链-6244
卫星全名:
星链-6244 (STARLINK-6244 )
卫星状态:
在轨 (已飞行1036 天)
发射日期:
2023-05-14 UTC
国别 :
美国 (US)
星等 :
--
轨道信息
数据来源 国际轨道数据
星历时间: 2026-03-15T14:00:01+0800
13小时前
查看轨道信息
半长轴: 6888.422km
偏心率: 0.0002086
轨道倾角: 43.000°
近地点辐角 259.919°
升交点赤经 192.066°
平近点角 105.487°
近地点: 508.848km
远地点: 511.722km
周期: 94.829分钟
每日圈数: 15.185294
详细信息
固有亮度:
5
最大亮度:
2.5
卫星平台:
Starlink v1.5
覆盖范围:
全球
运营商:
太空探索技术公司
运营商所在国:
美国
制造商(研发单位):
太空探索技术公司
制造商所在国:
美国
使用方式:
暂无
卫星简介
星链(Starlink)计划是由太空探索技术公司(SpaceX)提出的一个巨型低轨卫星互联网星座项目,计划在2019年至2024年间在太空搭建由约1.2万颗卫星组成的“星链”网络,其中1584颗将部署在地球上空550千米处的近地轨道,并从2020年开始工作。该卫星仍在工作。
2D轨道图
3D轨道图
轨道高度分析图
轨道倾角分析图
轨道综合分析图
查看轨道综合分析图